Location: Borz?cin
(51.1714°N, 19.6030°E)
Time: 22:55:46
(UTC+00:00)

Cosmos 1975 - Pass Details

Date: 19 May 2025
Orbit: 487 x 506 km, 82.5° (Epoch: 16 June)

Event Time Altitude Azimuth Distance (km) Brightness Sun altitude
Rises 21:09:39 0° 353° (N) 2,577 7.8 -16.3°
Reaches altitude 10° 21:11:49 10° 359° (N) 1,689 6.4 -16.4°
Maximum altitude 21:15:24 50° 76° (ENE) 635 3.0 -16.6°
Enters shadow 21:16:36 34° 129° (SE) 819 3.2 -16.6°
